Rolla, ND

7:09 PM CDT on July 27, 2017 (GMT -0500)
Rolla

Weather History for K06D - May, 2013

Change the Weather History Date:

Wednesday, May 22, 2013

  Actual Average (KRUG) Record (KRUG)
Temperature  
Mean Temperature 54 °F -  
Max Temperature 68 °F 74 °F 100 °F (1980)
Min Temperature 41 °F 45 °F 25 °F (1963)
Degree Days  
Heating Degree Days 10    
Growing Degree Days 4 (Base 50)    
Moisture  
Dew Point 41 °F    
Average Humidity 58    
Maximum Humidity 87    
Minimum Humidity 37    
Precipitation  
Precipitation 0.00 in - - ()
Sea Level Pressure  
Sea Level Pressure 30.12 in    
Wind  
Wind Speed 14 mph (NNE)    
Max Wind Speed 23 mph    
Max Gust Speed 30 mph    
Visibility 10 miles    
Events      
Averages and records for this station are not official NWS values.
T = Trace of Precipitation, MM = Missing Value Source: NWS Daily Summary

Daily Weather History Graph

Daily Weather History Graph

Search for Another Location

Airport or City:

Trip Planner

Search our weather history database for the weather conditions in past years. The results will help you decide how hot, cold, wet, or windy it might be!

Date:

Astronomy

May. 22, 2013 Rise Set
Actual Time 5:47 AM CDT 9:23 PM CDT
Civil Twilight 5:08 AM CDT 10:02 PM CDT
Nautical Twilight 4:15 AM CDT 10:56 PM CDT
Astronomical Twilight 3:02 AM CDT 12:10 AM CDT
Moon 6:36 PM CDT (5/22) 4:07 AM CDT (5/22)
Length of Visible Light 16h 54m
Length of Day
15h 35m
Waxing Gibbous, 91% of the Moon is Illuminated
May 22
Waxing Gibbous
May 24
Full
May 31
Last Quarter
Jun 8
New
Jun 16
First Quarter

Hourly Weather History & Observations

Time (CDT) Temp. Windchill Dew Point Humidity Pressure Visibility Wind Dir Wind Speed Gust Speed Precip Events Conditions
12:15 AM 44.6 °F 39.2 °F 37.4 °F 76% 30.01 in 10.0 mi NNE 10.4 mph - N/A   Clear
12:35 AM 44.6 °F 39.7 °F 35.6 °F 71% 30.01 in 10.0 mi NNE 9.2 mph - N/A   Clear
12:55 AM 44.6 °F 39.2 °F 35.6 °F 71% 30.01 in 10.0 mi NNE 10.4 mph - N/A   Clear
1:15 AM 42.8 °F 37.0 °F 37.4 °F 81% 30.02 in 10.0 mi North 10.4 mph - N/A   Clear
1:35 AM 42.8 °F 36.6 °F 35.6 °F 76% 30.02 in 10.0 mi North 11.5 mph - N/A   Clear
1:55 AM 41.0 °F 35.2 °F 35.6 °F 81% 30.02 in 10.0 mi North 9.2 mph - N/A   Clear
2:15 AM 41.0 °F 35.8 °F 37.4 °F 87% 30.02 in 10.0 mi NNW 8.1 mph - N/A   Clear
6:55 AM 41.0 °F 34.3 °F 37.4 °F 87% 30.06 in 10.0 mi NNW 11.5 mph - N/A   Clear
7:15 AM 42.8 °F 37.0 °F 39.2 °F 87% 30.06 in 10.0 mi NNW 10.4 mph - N/A   Clear
7:35 AM 44.6 °F 39.2 °F 39.2 °F 81% 30.07 in 10.0 mi North 10.4 mph - N/A   Clear
7:55 AM 46.4 °F 41.1 °F 41.0 °F 81% 30.07 in 10.0 mi North 11.5 mph - N/A   Clear
8:15 AM 48.2 °F - 41.0 °F 76% 30.08 in 10.0 mi North 12.7 mph - N/A   Clear
8:35 AM 50.0 °F - 41.0 °F 71% 30.08 in 10.0 mi North 11.5 mph - N/A   Clear
8:55 AM 51.8 °F - 41.0 °F 67% 30.08 in 10.0 mi North 12.7 mph - N/A   Clear
9:15 AM 53.6 °F - 41.0 °F 62% 30.09 in 10.0 mi NNE 11.5 mph - N/A   Clear
9:35 AM 55.4 °F - 41.0 °F 58% 30.10 in 10.0 mi NNE 12.7 mph - N/A   Clear
9:55 AM 55.4 °F - 41.0 °F 58% 30.10 in 10.0 mi NNE 15.0 mph - N/A   Clear
10:15 AM 57.2 °F - 39.2 °F 51% 30.10 in 10.0 mi NNE 15.0 mph - N/A   Clear
10:35 AM 59.0 °F - 37.4 °F 45% 30.10 in 10.0 mi NE 15.0 mph - N/A   Clear
10:55 AM 60.8 °F - 39.2 °F 45% 30.10 in 10.0 mi NE 15.0 mph - N/A   Clear
11:15 AM 62.6 °F - 39.2 °F 42% 30.10 in 10.0 mi NE 17.3 mph 23.0 mph N/A   Clear
11:35 AM 62.6 °F - 37.4 °F 39% 30.10 in 10.0 mi ENE 21.9 mph 25.3 mph N/A   Clear
11:55 AM 64.4 °F - 37.4 °F 37% 30.10 in 10.0 mi ENE 23.0 mph 29.9 mph N/A   Clear
12:15 PM 64.4 °F - 37.4 °F 37% 30.10 in 10.0 mi ENE 16.1 mph 28.8 mph N/A   Clear
12:35 PM 66.2 °F - 39.2 °F 37% 30.10 in 10.0 mi ENE 19.6 mph 26.5 mph N/A   Clear
12:55 PM 66.2 °F - 39.2 °F 37% 30.11 in 10.0 mi ENE 18.4 mph 26.5 mph N/A   Clear
1:15 PM 66.2 °F - 39.2 °F 37% 30.10 in 10.0 mi East 18.4 mph 28.8 mph N/A   Clear
1:35 PM 66.2 °F - 39.2 °F 37% 30.10 in 10.0 mi ENE 19.6 mph 26.5 mph N/A   Clear
1:55 PM 66.2 °F - 41.0 °F 40% 30.10 in 10.0 mi NE 16.1 mph 27.6 mph N/A   Scattered Clouds
2:15 PM 68.0 °F - 41.0 °F 37% 30.10 in 10.0 mi NE 23.0 mph 27.6 mph N/A   Mostly Cloudy
2:35 PM 66.2 °F - 39.2 °F 37% 30.10 in 10.0 mi NE 21.9 mph 28.8 mph N/A   Scattered Clouds
2:55 PM 68.0 °F - 41.0 °F 37% 30.10 in 10.0 mi NE 18.4 mph 27.6 mph N/A   Partly Cloudy
3:15 PM 66.2 °F - 41.0 °F 40% 30.10 in 10.0 mi NE 20.7 mph - N/A   Scattered Clouds
3:35 PM 66.2 °F - 42.8 °F 43% 30.11 in 10.0 mi NNE 23.0 mph - N/A   Scattered Clouds
3:55 PM 66.2 °F - 41.0 °F 40% 30.11 in 10.0 mi NE 19.6 mph 27.6 mph N/A   Partly Cloudy
4:15 PM 66.2 °F - 41.0 °F 40% 30.11 in 10.0 mi NE 21.9 mph 27.6 mph N/A   Partly Cloudy
4:35 PM 66.2 °F - 41.0 °F 40% 30.12 in 10.0 mi NNE 20.7 mph 29.9 mph N/A   Partly Cloudy
4:55 PM 66.2 °F - 41.0 °F 40% 30.12 in 10.0 mi NE 20.7 mph 28.8 mph N/A   Clear
5:15 PM 66.2 °F - 44.6 °F 46% 30.13 in 10.0 mi NE 21.9 mph - N/A   Clear
5:35 PM 66.2 °F - 46.4 °F 49% 30.13 in 10.0 mi NNE 18.4 mph - N/A   Partly Cloudy
5:55 PM 64.4 °F - 44.6 °F 49% 30.14 in 10.0 mi NNE 21.9 mph 25.3 mph N/A   Partly Cloudy
6:15 PM 64.4 °F - 44.6 °F 49% 30.14 in 10.0 mi NNE 18.4 mph 24.2 mph N/A   Clear
6:35 PM 64.4 °F - 46.4 °F 52% 30.15 in 10.0 mi NE 20.7 mph 26.5 mph N/A   Clear
6:55 PM 62.6 °F - 44.6 °F 52% 30.15 in 10.0 mi NE 19.6 mph 26.5 mph N/A   Clear
7:15 PM 62.6 °F - 44.6 °F 52% 30.15 in 10.0 mi NE 21.9 mph 28.8 mph N/A   Clear
7:35 PM 62.6 °F - 44.6 °F 52% 30.16 in 10.0 mi NE 19.6 mph 25.3 mph N/A   Clear
7:55 PM 60.8 °F - 46.4 °F 59% 30.16 in 10.0 mi NE 19.6 mph 25.3 mph N/A   Clear
8:15 PM 59.0 °F - 46.4 °F 63% 30.17 in 10.0 mi NE 20.7 mph 25.3 mph N/A   Clear
8:35 PM 59.0 °F - 44.6 °F 59% 30.17 in 10.0 mi NE 19.6 mph 25.3 mph N/A   Clear
8:55 PM 57.2 °F - 44.6 °F 63% 30.18 in 10.0 mi NE 17.3 mph - N/A   Clear
9:15 PM 55.4 °F - 44.6 °F 67% 30.19 in 10.0 mi NE 17.3 mph 24.2 mph N/A   Clear
9:35 PM 53.6 °F - 44.6 °F 72% 30.19 in 10.0 mi NNE 13.8 mph - N/A   Clear
9:55 PM 53.6 °F - 42.8 °F 67% 30.21 in 10.0 mi NNE 15.0 mph - N/A   Clear
10:15 PM 53.6 °F - 41.0 °F 62% 30.22 in 10.0 mi NNE 15.0 mph - N/A   Clear
10:35 PM 50.0 °F - 42.8 °F 76% 30.23 in 10.0 mi NNE 13.8 mph - N/A   Clear
10:55 PM 50.0 °F - 42.8 °F 76% 30.24 in 10.0 mi NNE 11.5 mph - N/A   Clear
11:15 PM 48.2 °F - 42.8 °F 82% 30.25 in 10.0 mi North 10.4 mph - N/A   Clear
11:35 PM 48.2 °F - 42.8 °F 82% 30.25 in 10.0 mi NNE 12.7 mph - N/A   Clear
11:55 PM 48.2 °F - 42.8 °F 82% 30.26 in 10.0 mi NNE 12.7 mph - N/A   Clear